Tracking 23645 objects as of 21-Sep-2021
HD Live streaming from Space Station
objects crossing your sky now

STARLINK-1504

Track STARLINK-1504 now!
10-day predictions
STARLINK-1504 is classified as:


NORAD ID: 45746
Int'l Code: 2020-038S
Perigee: 553.8 km
Apogee: 555.0 km
Inclination: 53.1 °
Period: 95.6 minutes
Semi major axis: 6925 km
RCS: Unknown
Launch date: June 13, 2020
Source: United States (US)
Launch site: AIR FORCE EASTERN TEST RANGE (AFETR)
aabbcc
Your satellite tracking list
Your tracking list is empty




NASA's NSSDC Master Catalog

Two Line Element Set (TLE):
1 45746U 20038S   21264.20667586 -.00002683  00000-0 -16139-3 0  9998
2 45746  53.0542 356.1544 0000814  99.5485 260.5596 15.06386852 71362
Source of the keplerian elements: AFSPC